Location: Unspecified
(0.0000°N, 0.0000°E)
Time: 00:14:08
(UTC+00:00)

N. Korean satellite - Visible Passes

Search period start: 16 September 2019 00:00
Search period end: 26 September 2019 00:00
Orbit: 455 x 508 km, 97.2° (Epoch: 15 September)

Date Brightness Start Highest point End Pass type
(mag) Time Alt. Az. Time Alt. Az. Time Alt. Az.
16 Sep 7.8 05:19:14 10° NNE 05:22:30 43° E 05:25:50 10° S visible
17 Sep 9.7 04:55:08 10° ENE 04:57:22 16° ESE 04:59:39 10° SE visible
17 Sep 9.8 18:15:28 10° SSW 18:18:07 19° WSW 18:20:45 10° NW visible
20 Sep 8.5 05:11:55 10° NE 05:15:03 32° ESE 05:18:13 10° SSE visible
21 Sep 10.0 04:48:18 10° ENE 04:49:55 13° ESE 04:51:32 10° SE visible
24 Sep 9.1 05:04:39 10° NE 05:07:34 25° ESE 05:10:31 10° SSE visible
24 Sep 10.2 18:26:44 10° SW 18:28:20 12° WSW 18:29:56 10° WNW visible
